EW2077 Weather Reports


Display with metric or nautical units.
time (UTC)temp
F
wind
direction
speed
MPH
gust
MPH
rain 1hr
in
rain 24hr
in
rain mn
in
humidity
%
barometer
mb
20210917231540 59 184 0.0 1.0 0.00 0.00 0.00 56 1041.8
20210917230006 58 191 0.0 2.0 0.00 0.00 0.00 57 1041.6
20210917224505 58 189 0.0 1.0 0.00 0.00 0.00 57 1041.7
20210917223011 59 189 0.0 1.0 0.00 0.00 0.00 58 1041.7
20210917221516 59 180 0.0 0.0 0.00 0.00 0.00 54 1041.9
20210917220008 59 180 0.0 1.0 0.00 0.00 0.00 54 1041.7
20210917214514 59 177 0.0 2.0 0.00 0.00 0.00 54 1041.7
20210917213014 58 165 0.0 2.0 0.00 0.00 0.00 55 1041.5
20210917210324 59 178 0.0 3.0 0.00 0.00 0.00 52 1041.3
20210917204624 60 174 1.0 4.0 0.00 0.00 0.00 51 1041.1
20210917203152 61 215 1.0 5.0 0.00 0.00 0.00 51 1041.0
20210917201727 60 158 2.0 6.0 0.00 0.00 0.00 51 1041.0
20210917200154 60 167 1.0 5.0 0.00 0.00 0.00 51 1040.9
20210917194713 60 159 2.0 5.0 0.00 0.00 0.00 52 1040.9
20210917193100 60 169 1.0 5.0 0.00 0.00 0.00 52 1040.9
20210917191635 60 173 1.0 5.0 0.00 0.00 0.00 53 1041.0
20210917190307 59 155 1.0 4.0 0.00 0.00 0.00 54 1040.9
20210917184553 58 189 1.0 6.0 0.00 0.00 0.00 54 1040.9
20210917183155 58 200 1.0 4.0 0.00 0.00 0.00 56 1041.0
20210917181722 57 132 1.0 5.0 0.00 0.00 0.00 56 1041.1
20210917180114 56 189 0.0 3.0 0.00 0.00 0.00 58 1041.0
20210917174550 56 176 1.0 5.0 0.00 0.00 0.00 59 1041.3
20210917173112 55 142 0.0 4.0 0.00 0.00 0.00 62 1041.5
20210917171633 53 126 0.0 3.0 0.00 0.00 0.00 64 1041.5
20210917170037 51 182 0.0 2.0 0.00 0.00 0.00 68 1041.6
20210917164606 51 224 0.0 2.0 0.00 0.00 0.00 68 1041.7
20210917163100 49 227 0.0 3.0 0.00 0.00 0.00 73 1041.8
20210917161540 47 215 0.0 3.0 0.00 0.00 0.00 75 1041.8
20210917160111 46 203 0.0 3.0 0.00 0.00 0.00 76 1041.8
20210917154541 45 236 0.0 2.0 0.00 0.00 0.00 79 1041.8
20210917153036 43 240 0.0 1.0 0.00 0.00 0.00 81 1041.8
20210917151530 43 243 0.0 3.0 0.00 0.00 0.00 81 1041.7
20210917150048 42 318 0.0 2.0 0.00 0.00 0.00 82 1041.7
20210917144549 42 209 0.0 0.0 0.00 0.00 0.00 82 1041.6
20210917143041 41 209 0.0 0.0 0.00 0.00 0.00 83 1041.5
20210917141557 41 209 0.0 0.0 0.00 0.00 0.00 83 1041.5
20210917140054 40 209 0.0 0.0 0.00 0.00 0.00 84 1041.5
20210917134549 40 209 0.0 0.0 0.00 0.00 0.00 84 1041.3
20210917133043 40 209 0.0 0.0 0.00 0.00 0.00 84 1041.1
20210917131541 39 209 0.0 0.0 0.00 0.00 0.00 85 1040.9
20210917130014 39 209 0.0 0.0 0.00 0.00 0.00 84 1040.6
20210917124537 40 209 0.0 0.0 0.00 0.00 0.00 83 1040.4
20210917123006 40 209 0.0 2.0 0.00 0.00 0.00 83 1040.1
20210917121508 41 194 0.0 0.0 0.00 0.00 0.00 82 1039.7
20210917120117 42 188 0.0 5.0 0.00 0.00 0.00 81 1039.6
20210917114647 43 148 0.0 2.0 0.00 0.00 0.00 80 1039.4
20210917113126 43 288 0.0 1.0 0.00 0.00 0.00 81 1039.1
20210917111618 44 290 0.0 0.0 0.00 0.00 0.00 81 1039.0
20210917110153 45 290 0.0 0.0 0.00 0.00 0.00 80 1038.8
20210917104659 45 290 0.0 0.0 0.00 0.00 0.00 79 1038.7
20210917103100 46 290 0.0 0.0 0.00 0.00 0.00 77 1038.4
20210917101602 47 290 0.0 0.0 0.00 0.00 0.00 75 1038.4
20210917100100 48 290 0.0 0.0 0.00 0.00 0.00 74 1038.4
20210917094541 48 290 0.0 0.0 0.00 0.00 0.00 71 1038.2
20210917093026 49 290 0.0 0.0 0.00 0.00 0.00 69 1037.9
20210917091544 50 290 0.0 0.0 0.00 0.00 0.00 68 1037.6
20210917090024 51 290 0.0 1.0 0.00 0.00 0.00 64 1037.5
20210917084530 52 289 0.0 0.0 0.00 0.00 0.00 61 1037.4
20210917083021 52 289 0.0 1.0 0.00 0.00 0.00 60 1037.0
20210917081533 53 291 0.0 0.0 0.00 0.00 0.00 57 1036.7
20210917080010 54 213 0.0 0.0 0.00 0.00 0.00 55 1036.7
20210917074515 54 188 1.0 4.0 0.00 0.00 0.00 55 1036.4
20210917073002 52 203 0.0 5.0 0.00 0.00 0.00 43 1036.0
20210917071712 51 304 0.0 3.0 0.00 0.00 0.00 40 1035.1
20210917070129 52 196 0.0 0.0 0.00 0.00 0.00 38 1034.0
20210917064620 52 196 0.0 0.0 0.00 0.00 0.00 37 1033.4
20210917063057 52 196 0.0 0.0 0.00 0.00 0.00 37 1033.3
20210917061615 53 196 0.0 0.0 0.00 0.00 0.00 36 1032.9
20210917060056 53 196 0.0 0.0 0.00 0.00 0.00 35 1032.7
20210917054552 54 196 0.0 0.0 0.00 0.00 0.00 34 1032.5
20210917053050 54 196 0.0 0.0 0.00 0.00 0.00 33 1032.2
20210917051552 54 196 0.0 0.0 0.00 0.00 0.00 34 1032.2
20210917050112 55 194 0.0 0.0 0.00 0.00 0.00 33 1031.9
20210917044552 55 194 0.0 0.0 0.00 0.00 0.00 34 1031.8
20210917043103 55 194 0.0 0.0 0.00 0.00 0.00 33 1031.7
20210917041558 56 194 0.0 0.0 0.00 0.00 0.00 32 1031.6
20210917040051 57 194 0.0 0.0 0.00 0.00 0.00 31 1031.5
20210917034615 57 194 0.0 0.0 0.00 0.00 0.00 30 1031.5
20210917033124 58 194 0.0 0.0 0.00 0.00 0.00 30 1031.2
20210917031558 59 193 0.0 0.0 0.00 0.00 0.00 28 1031.0
20210917030053 60 193 0.0 0.0 0.00 0.00 0.00 28 1030.6
20210917024626 62 193 0.0 0.0 0.00 0.00 0.00 26 1030.3
20210917023127 63 193 0.0 0.0 0.00 0.00 0.00 26 1029.9
20210917021613 64 193 0.0 0.0 0.00 0.00 0.00 26 1029.5
20210917020109 66 193 0.0 0.0 0.00 0.00 0.00 25 1029.3
20210917014600 67 191 0.0 0.0 0.00 0.00 0.00 24 1029.1
20210917013109 68 191 0.0 1.0 0.00 0.00 0.00 23 1028.7
20210917011546 69 188 0.0 1.0 0.00 0.00 0.00 22 1028.3
20210917010037 71 188 0.0 0.0 0.00 0.00 0.00 21 1028.2
20210917004550 74 184 0.0 0.0 0.00 0.00 0.00 19 1028.2
20210917003054 75 184 0.0 0.0 0.00 0.00 0.00 18 1028.1
20210917001543 75 186 0.0 1.0 0.00 0.00 0.00 18 1027.9
20210917000108 76 184 0.0 2.0 0.00 0.00 0.00 17 1027.5
20210916234615 76 196 0.0 1.0 0.00 0.00 0.00 17 1027.3
20210916233053 77 199 0.0 1.0 0.00 0.00 0.00 17 1027.2